User: anonymous
Location: Bonn
(50.7330°N, 7.1000°E)
Time: 11:04:13
(UTC+02:00)
Language:

Iridium 84 - Orbit

View from above orbital plane
View from above orbital plane
View from above satellite
View from above satellite

Ground track
Ground track

The orbit data is extracted from the following two-line orbital elements,

1 25530U 98066D   14210.22171825  .00000218  00000-0  70801-4 0  7168
2 25530 086.3930 070.6026 0002171 100.1930 259.9511 14.34218549825932
Epoch (UTC): 29 July 2014 05:19:16
Eccentricity: 0.0002171
inclination: 86.3930°
perigee height: 776 km
apogee height: 779 km
right ascension of ascending node: 70.6026°
argument of perigee: 100.1930°
revolutions per day: 14.34218549
mean anomaly at epoch: 259.9511°
orbit number at epoch: 82593

The dashed part of the orbit path shows where the satellite is in the earth's shadow,  

DLR